SNK525 RPMZ-RPLL

Flight info

Callsign SNK525
Flight time N/A
Altitude 37000
Route BURCO1E BURCO W3 IOO/N0457F360 B472 IBAGO IBAGO3R
Aircraft B738/M-SDE2E3FGHIRWXY/LB1

Departure

Time 2026-05-07 11:55
Airport Zamboanga International Airport (RPMZ)

Arrival

Time N/A
Airport Ninoy Aquino International Airport (RPLL)
Time Latitude Longitude Altitude Speed Heading
2026-05-07 11:43 6.92039 122.06241 36 ft 0 kts 155°
2026-05-07 11:45 6.92037 122.06242 36 ft 0 kts 144°
2026-05-07 11:45 6.92035 122.06245 36 ft 0 kts 117°
2026-05-07 11:46 6.92035 122.06251 36 ft 0 kts 80°
2026-05-07 11:46 6.92039 122.06256 36 ft 1 kts 36°
2026-05-07 11:46 6.92049 122.06256 36 ft 3 kts 355°
2026-05-07 11:46 6.92077 122.06255 36 ft 4 kts 356°
2026-05-07 11:47 6.92106 122.06253 35 ft 4 kts 357°
2026-05-07 11:47 6.92135 122.06252 35 ft 3 kts
2026-05-07 11:47 6.92162 122.06253 35 ft 3 kts
2026-05-07 11:47 6.92176 122.06254 35 ft 0 kts
2026-05-07 11:48 6.92179 122.06254 35 ft 1 kts
2026-05-07 11:48 6.92199 122.06254 35 ft 3 kts 353°
2026-05-07 11:48 6.92221 122.06234 35 ft 5 kts 288°
2026-05-07 11:48 6.92226 122.06202 35 ft 3 kts 274°
2026-05-07 11:49 6.92227 122.06184 35 ft 2 kts 274°
2026-05-07 11:49 6.92228 122.06171 35 ft 1 kts 274°
2026-05-07 11:49 6.92229 122.06156 35 ft 3 kts 274°
2026-05-07 11:49 6.92231 122.06127 35 ft 5 kts 274°
2026-05-07 11:50 6.92234 122.06086 35 ft 6 kts 274°
2026-05-07 11:50 6.92237 122.06033 34 ft 8 kts 274°
2026-05-07 11:50 6.92241 122.05971 34 ft 9 kts 274°
2026-05-07 11:50 6.92247 122.05894 33 ft 12 kts 274°
2026-05-07 11:51 6.92255 122.05798 31 ft 14 kts 275°
2026-05-07 11:51 6.92265 122.05688 30 ft 16 kts 274°
2026-05-07 11:51 6.92270 122.05569 29 ft 17 kts 272°
2026-05-07 11:51 6.92277 122.05439 28 ft 19 kts 274°
2026-05-07 11:52 6.92288 122.05299 26 ft 20 kts 275°
2026-05-07 11:52 6.92300 122.05164 28 ft 18 kts 273°
2026-05-07 11:52 6.92306 122.05034 28 ft 18 kts 273°
2026-05-07 11:52 6.92308 122.04916 30 ft 14 kts 268°
2026-05-07 11:53 6.92305 122.04833 32 ft 8 kts 269°
2026-05-07 11:53 6.92317 122.04806 32 ft 2 kts 337°
2026-05-07 11:53 6.92331 122.04809 32 ft 2 kts 34°
2026-05-07 11:53 6.92337 122.04822 32 ft 2 kts 87°
2026-05-07 11:54 6.92330 122.04838 32 ft 3 kts 127°
2026-05-07 11:54 6.92317 122.04860 31 ft 4 kts 101°
2026-05-07 11:54 6.92312 122.04915 30 ft 25 kts 95°
2026-05-07 11:54 6.92307 122.05004 29 ft 50 kts 92°
2026-05-07 11:55 6.92080 122.08624 997 ft 173 kts 92°
2026-05-07 11:55 6.91985 122.09862 1263 ft 186 kts 93°
2026-05-07 11:56 6.91884 122.11201 1434 ft 201 kts 93°
2026-05-07 11:56 6.91780 122.12686 1505 ft 224 kts 91°
2026-05-07 11:56 6.92039 122.14244 1780 ft 232 kts 61°
2026-05-07 11:56 6.93192 122.15354 2160 ft 235 kts 22°
2026-05-07 11:57 6.94806 122.15603 2606 ft 240 kts
2026-05-07 11:57 6.96474 122.15707 3159 ft 247 kts
2026-05-07 11:57 6.98207 122.16058 3716 ft 257 kts 13°
2026-05-07 11:57 6.99959 122.16478 4336 ft 265 kts 13°
2026-05-07 11:58 7.01737 122.16918 5083 ft 267 kts 13°
2026-05-07 11:58 7.03558 122.17376 5736 ft 272 kts 13°
2026-05-07 11:58 7.05385 122.17840 6468 ft 274 kts 13°
2026-05-07 11:58 7.07230 122.18310 7153 ft 278 kts 12°
2026-05-07 11:59 7.09095 122.18786 7849 ft 282 kts 12°
2026-05-07 11:59 7.11034 122.18982 8485 ft 284 kts 350°
2026-05-07 11:59 7.12895 122.18394 9302 ft 280 kts 336°
2026-05-07 11:59 7.14628 122.17687 9845 ft 289 kts 336°
2026-05-07 12:00 7.16497 122.16959 10492 ft 295 kts 336°
2026-05-07 12:00 7.18480 122.16187 10639 ft 319 kts 337°
2026-05-07 12:00 7.20614 122.15360 11007 ft 334 kts 337°
2026-05-07 12:00 7.22799 122.14515 11528 ft 342 kts 336°
2026-05-07 12:01 7.25043 122.13648 12082 ft 350 kts 336°
2026-05-07 12:01 7.27284 122.12781 12819 ft 351 kts 336°
2026-05-07 12:01 7.29566 122.11899 13446 ft 356 kts 337°
2026-05-07 12:01 7.31888 122.11004 14144 ft 358 kts 338°
2026-05-07 12:02 7.34309 122.10398 14750 ft 365 kts 352°
2026-05-07 12:02 7.36861 122.10427 15483 ft 369 kts
2026-05-07 12:02 7.39412 122.10718 16049 ft 374 kts
2026-05-07 12:02 7.41993 122.11018 16739 ft 375 kts
2026-05-07 12:03 7.44574 122.11308 17278 ft 379 kts
2026-05-07 12:03 7.47178 122.11600 17897 ft 381 kts
2026-05-07 12:03 7.49805 122.11893 18456 ft 384 kts
2026-05-07 12:03 7.52467 122.12189 19022 ft 387 kts
2026-05-07 12:04 7.55134 122.12486 19568 ft 389 kts
2026-05-07 12:04 7.57836 122.12787 20115 ft 392 kts
2026-05-07 12:04 7.60531 122.13086 20649 ft 394 kts
2026-05-07 12:04 7.63253 122.13389 21145 ft 396 kts
2026-05-07 12:05 7.66013 122.13695 21639 ft 399 kts
2026-05-07 12:05 7.68735 122.13998 22095 ft 401 kts
2026-05-07 12:05 7.71530 122.14308 22558 ft 404 kts
2026-05-07 12:05 7.74327 122.14619 22998 ft 406 kts
2026-05-07 12:06 7.77137 122.14932 23429 ft 409 kts
2026-05-07 12:06 7.79968 122.15246 23845 ft 411 kts
2026-05-07 12:06 7.82798 122.15560 24247 ft 413 kts
2026-05-07 12:06 7.85648 122.15878 24654 ft 416 kts
2026-05-07 12:07 7.88505 122.16195 25035 ft 418 kts
2026-05-07 12:07 7.91406 122.16518 25414 ft 420 kts
2026-05-07 12:07 7.94289 122.16838 25768 ft 423 kts
2026-05-07 12:07 7.97225 122.17165 26138 ft 424 kts
2026-05-07 12:08 7.98191 122.17272 26254 ft 425 kts